Location: Mission Viejo Division
(33.5624°N, 117.5924°W)
Time: 07:39:28
(UTC+00:00)

CBERS-1 - Pass Details

Date: 22 May 2024
Orbit: 767 x 774 km, 98.8° (Epoch: 23 June)

Event Time Altitude Azimuth Distance (km) Brightness Sun altitude
Rises 12:01:58 0° 16° (NNE) 3,243 8.1 -8.7°
Reaches altitude 10° 12:04:17 10° 19° (NNE) 2,313 7.3 -8.3°
Maximum altitude 12:09:22 68° 102° (ESE) 826 4.4 -7.4°
Drops below altitude 10° 12:14:25 10° 185° (S) 2,303 6.1 -6.5°
Sets 12:16:44 0° 188° (S) 3,227 6.9 -6.1°
